Location: Ellerstadt
(49.4644°N, 8.2615°E)
Time: 10:20:39
(UTC+00:00)

Cosmos 2237 - Pass Details

Date: 03 March 2021
Orbit: 845 x 857 km, 70.9° (Epoch: 12 April)

Event Time Altitude Azimuth Distance (km) Brightness Sun altitude
Rises 18:07:10 0° 188° (S) 3,408 7.4 -9.6°
Reaches altitude 10° 18:09:41 10° 182° (S) 2,478 6.7 -10.0°
Maximum altitude 18:15:07 48° 110° (ESE) 1,115 4.5 -10.9°
Drops below altitude 10° 18:20:36 10° 38° (NE) 2,500 6.3 -11.7°
Sets 18:23:08 0° 33° (NNE) 3,441 7.1 -12.2°
